Location: Newark
(51.2000°N, 58.6167°E)
Time: 09:06:30
(UTC+00:00)

Envisat - Pass Details

Date: 09 October 2020
Orbit: 764 x 766 km, 98.1° (Epoch: 23 October)

Event Time Altitude Azimuth Distance (km) Brightness Sun altitude
Rises 01:25:52 0° 21° (NNE) 3,244 6.6 -9.2°
Reaches altitude 10° 01:28:26 10° 31° (NNE) 2,313 5.9 -8.8°
Maximum altitude 01:32:58 32° 94° (E) 1,304 5.2 -8.1°
Drops below altitude 10° 01:37:28 10° 157° (SSE) 2,297 5.8 -7.4°
Sets 01:40:00 0° 167° (SSE) 3,218 6.4 -7.0°
